Regional Weather Roundup
Issued by NWS Austin/San Antonio, TX

Home | Current Version | Previous Version | Text Only | Print | Product List | Glossary On
Versions: 1 2 3 4 5 6 7 8 9 10 11 12 13 14 15 16 17 18 19 20 21 22 23 24 25 26 27 28 29 30 31 32 33 34 35 36 37 38 39 40 41 42 43 44 45 46 47 48 49 50
558
ASUS44 KEWX 211602
RWREWX
SOUTH TEXAS REGIONAL WEATHER ROUNDUP
NATIONAL WEATHER SERVICE AUSTIN/SAN ANTONIO TX
1100 AM CDT SUN APR 21 2019

NOTE: "FAIR" INDICATED FEW OR NO CLOUDS BELOW 12,000 FEET WITH NO
SIGNIFICANT WEATHER AND/OR OBSTRUCTIONS TO VISIBILITY.

* - THESE STATIONS ARE NOT NWS OR FAA STATIONS...AND ARE NOT SUBJECT
    TO NWS AND FAA QUALITY CONTROL.

TXZ171-172-183>190-211700-
TEXAS HILL COUNTRY AND EDWARDS PLATEAU

CITY           SKY/WX    TMP DP  RH WIND       PRES   REMARKS
JUNCTION       PTSUNNY   69  59  70 S9        29.99R
*LLANO         MOSUNNY   72  61  68 S8G17     30.01R
BURNET         MOSUNNY   71  59  65 S16G25    30.01R
*HORSESHOE BAY PTSUNNY   71  60  68 S14G20    30.00R
*KERRVILLE     CLOUDY    64  58  83 S16       30.01R
*FREDERICKSBRG CLOUDY    66  58  75 S13G23    30.00R
*ROCKSPRINGS     N/A     61  59  94 S13       30.06R
*BOERNE STAGE  CLOUDY    64  61  88 S14G23    30.02R
*CASTROVILLE   CLOUDY    70  61  71 S16G22    30.01S
HONDO          CLOUDY    73  63  70 S15       30.00R
*UVALDE        CLOUDY    69  63  81 S10       30.00R
DEL RIO        CLOUDY    68  60  75 E13       29.95S
LAUGHLIN AFB   CLOUDY    66  60  81 SE12      29.96S
CARRIZO SPRGS  MOSUNNY   73  61  64 SE10      29.95S
*FAITH RANCH   SUNNY     75  63  64 S12       29.95S
$$

TXZ173-191>194-202-209-217>225-228-211700-
CENTRAL AND SOUTH CENTRAL TEXAS

CITY           SKY/WX    TMP DP  RH WIND       PRES   REMARKS
GEORGETOWN     SUNNY     70  60  70 S18G25    30.01S
AUSTIN/BERGSTM MOSUNNY   73  67  81 S16G25    30.00S
AUSTIN/MABRY   PTSUNNY   70  62  76 S9        30.01S
*AUSTIN/EXEC   MOSUNNY   73  63  68 S12G18    30.01S
*LAGO VISTA    PTSUNNY   70  60  71 S13G21    30.00S
SAN MARCOS     PTSUNNY   73  63  70 S22       30.01S
NEW BRAUNFELS  PTSUNNY   75  62  64 S20       29.99S
RANDOLPH AFB   PTSUNNY   73  63  72 S15       30.00R
PT SAN ANTONIO PTSUNNY   71  62  72 SE18      29.98S
SAN ANTONIO    PTSUNNY   71  62  73 S14G25    30.01S
STINSON FIELD  PTSUNNY   74  60  61 S20       29.98F
*LA GRANGE     SUNNY     76  62  63 S13G18    30.01R
*GIDDINGS      SUNNY     76  63  64 S13G18    30.03R
*GONZALES      SUNNY     74  63  67 S16G24    30.01R
$$

TXZ163>164-176>182-195>201-210>213-226-227-235-211700-
SOUTHEAST TEXAS

CITY           SKY/WX    TMP DP  RH WIND       PRES   REMARKS
COLLEGE STN    SUNNY     74  56  53 SE17G24   30.03S
*BRYAN         SUNNY     72  53  52 S16       30.05S
*CALDWELL      SUNNY     73  60  64 S17       30.03R
*CROCKETT        N/A     70  55  60 S9        30.08S
*BRENHAM       SUNNY     75  56  51 S13G21    30.05R
HUNTSVILLE     SUNNY     74  53  48 S7        30.05S
CONROE         SUNNY     76  57  51 S12       30.07R
HOUSTON BUSH   SUNNY     76  55  48 SE15      30.07R
HOUSTON HOBBY  FAIR      76  54  46 S14G22    30.07R
*HOUSTON SW AP FAIR      76  58  53 S9        30.07S
PEARLAND       FAIR      75  56  51 SE16      30.09R
HOUSTON HOOKS  FAIR      76  53  44 SE10G18   30.06R
ELLINGTON FLD  NOT AVBL
SUGAR LAND     FAIR      77  58  51 SE14G24   30.06S
*HOUSTON EXEC  FAIR      77  55  47 S14G20    30.07R
*CLEVELAND MUN FAIR      75  57  53 S10G16    30.09R
*WHARTON       SUNNY     75  55  48 SE15      30.05S
*COLUMBUS      FAIR      75  56  52 S12G21    30.06R
*EAGLE LAKE    SUNNY     73  58  59 S16G24    30.04
$$

TXZ214>216-236>238-211700-
THE UPPER TEXAS COAST

CITY           SKY/WX    TMP DP  RH WIND       PRES   REMARKS
*ORANGE        FAIR      73  60  62 S10G16    30.14R
PORT ARTHUR    FAIR      76  55  48 SE15      30.11R
GALVESTON      FAIR      74  58  57 S18       30.10R
ANGLETON       FAIR      75  57  53 S20       30.07S
*BAY CITY      MOSUNNY   76  60  56 SE20      30.05F
PALACIOS       SUNNY     76  64  66 SE22G30   30.05R
$$

TXZ229>234-239>247-211700-
TEXAS COASTAL BEND AND RIO GRANDE PLAINS

CITY           SKY/WX    TMP DP  RH WIND       PRES   REMARKS
VICTORIA       LGT RAIN  78  60  53 S24       30.03R
*BEEVILLE      SUNNY     81  59  47 S24G30    30.00R
ROCKPORT       SUNNY     77  64  64 SE17G29   30.02R
*PORT ARANSAS  SUNNY     76  66  72 SE18G25   30.03S
*PORT LAVACA   SUNNY     79  64  60 S17G24    30.04R
*INGLESIDE     SUNNY     77  66  68 S22G29    30.01R
CORPUS CHRISTI PTSUNNY   77  64  64 S28G36    30.00R
CORPUS NAS     SUNNY     82  68  62 SE24G32   30.01R
*ROBSTOWN      NOT AVBL
ALICE          SUNNY     80  62  54 S22G29    29.98R
KINGSVILLE NAS LGT RAIN  82  62  50 SE25G36   29.98S
COTULLA        MOSUNNY   73  62  68 SE14      29.96S
LAREDO         MOSUNNY   79  60  52 SE16G26   29.94S
$$

TXZ248>255-211700-
DEEP SOUTH TEXAS

CITY           SKY/WX    TMP DP  RH WIND       PRES   REMARKS
BROWNSVILLE    FAIR      82  65  56 SE28G38   30.01R
PORT ISABEL    FAIR      79  64  60 SE25G36   29.99R
HARLINGEN      SUNNY     82  61  48 S25G37    29.98R
*HEBBRONVILLE  SUNNY     76  60  57 S20       29.98S
MCALLEN        SUNNY     83  62  49 SE24G35   29.97R
*WESLACO       MOSUNNY   80  61  51 S21G32    29.97R
FALFURRIAS     SUNNY     81  60  48 SE18G25   29.98R
EDINBURG       FAIR      82  62  50 S21       29.98R
*ZAPATA        FAIR      80  58  47 SE13G21   29.95S
$$

TXZ213>215-236>238-242>244-246-247-251-254-255-211700-
CMAN STATIONS

STATION/POSITION TIME  TEMP    WIND        PRES    WAVE
                       AIR SEA DIR/SP/G            HT/PER
                 (UTC) (F)     (DEG/KT/KT) (MB)    (FT/S)
SABINE PASS      1530   69 71  150/ 15/ 20 1021.3
SEA RIM ST PARK  1500   69     160/ 12/ 15 1019.2
NORTH JETTY/GLS  1530   69 68  160/ 17/ 19 1018.7
EAGLE POINT      1530   69 70  170/ 15/ 18 1018.9
MORGANS POINT    1530   71 70  140/  8/ 13 1018.8
PORT O`CONNOR    1530   71 71  140/ 18/ 21 1016.9
PORT ARANSAS     1500   72 71  140/ 20/ 23 1015.9
MALAQUITE BEACH  1530   74 73  130/ 19/ 20 1015.7
BAFFIN BAY       1530   73 73  130/ 20/ 25 1016.1
PORT ISABEL      1524   74 74  150/ 18/ 26 1016.2
$$




USA.gov is the U.S. government's official web portal to all federal, state and local government web resources and services.